This is the latest recevied weather packets stored in our database for station/object AI9F. If no packets are shown the sender has not sent any weather packets the latest 10 day(s).
| Time | Temp. | Humidity | Pressure | Rain* | Wind** | Luminosity | Snow |
|---|---|---|---|---|---|---|---|
| 1777208798 | 16.67° C | 78% | 1015.8 hPa | 0 mm | - | 165 W/m² | - |
| 1777208496 | 16.67° C | 80% | 1015.8 hPa | 0 mm | - | 138 W/m² | - |
| 1777208192 | 16.11° C | 81% | 1015.8 hPa | 0 mm | - | 155 W/m² | - |
| 1777207888 | 16.11° C | 81% | 1015.7 hPa | 0 mm | - | 140 W/m² | - |
| 1777207583 | 16.11° C | 81% | 1015.7 hPa | 0 mm | - | 124 W/m² | - |
| 1777207278 | 15.56° C | 82% | 1015.6 hPa | 0 mm | - | 113 W/m² | - |
| 1777206978 | 15.56° C | 82% | 1015.5 hPa | 0 mm | - | 102 W/m² | - |
| 1777206674 | 15° C | 83% | 1015.4 hPa | 0 mm | - | 92 W/m² | - |
| 1777206369 | 15° C | 84% | 1015.6 hPa | 0 mm | - | 81 W/m² | - |
| 1777206065 | 15° C | 84% | 1015.2 hPa | 0 mm | - | 71 W/m² | - |
| 1777205761 | 14.44° C | 85% | 1015.5 hPa | 0 mm | - | 62 W/m² | - |
| 1777205458 | 14.44° C | 85% | 1015.3 hPa | 0 mm | - | 53 W/m² | - |
| 1777205154 | 13.89° C | 85% | 1015.2 hPa | 0 mm | - | 47 W/m² | - |
| 1777204850 | 13.89° C | 86% | 1015.4 hPa | 0 mm | - | 40 W/m² | - |
| 1777204545 | 13.33° C | 88% | 1015.4 hPa | 0 mm | - | 34 W/m² | - |
| 1777204241 | 12.78° C | 89% | 1015.1 hPa | 0 mm | - | 29 W/m² | - |
| 1777203937 | 12.78° C | 89% | 1015.2 hPa | 0 mm | - | 23 W/m² | - |
| 1777203631 | 12.78° C | 89% | 1015.2 hPa | 0 mm | - | 21 W/m² | - |
| 1777203327 | 12.78° C | 88% | 1014.7 hPa | 0 mm | - | 18 W/m² | - |
| 1777203025 | 12.78° C | 88% | 1014.8 hPa | 0 mm | - | 15 W/m² | - |
| 1777202721 | 12.78° C | 88% | 1014.8 hPa | 0 mm | - | 13 W/m² | - |
| 1777202420 | 12.78° C | 88% | 1014.7 hPa | 0 mm | - | 10 W/m² | - |
| 1777202115 | 12.78° C | 89% | 1015 hPa | 0 mm | - | 7 W/m² | - |
| 1777201810 | 12.78° C | 89% | 1014.7 hPa | 0 mm | - | 5 W/m² | - |
| 1777201508 | 12.78° C | 88% | 1014.7 hPa | 0 mm | - | 3 W/m² | - |
* Rain latest hour (hover to see other rain measurements)
** Current wind speed in m/s (hover to see current wind gust speed)